OPS 4682 DEB, 38455

Orbit data source: Space-Track

OPS 4682 DEB, 38455 is space debris in LEO originally from a launch on Sat, 03 Apr 1965 UTC launched from the Air Force Western Test Range (AFWTR). Debris objects in space refer to the collection of defunct objects orbiting the Earth. Examples of debris include non-operational satellites, rocket bodies, and fragments generated from explosions, collisions, or faulty payload assembly.

Loading next visibility...
Identifier
38455, 1965-027FL
Orbit
LEO
Country
Flag of USUS
Related business
Manufacturer
Unknown
Mission
Spacecraft
Bus & Motor
Unknown
Mass
Unknown
Launch date (UTC)
1965-04-03 (61 years ago)
Launch vehicle
Unknown
Launch site
Air Force Western Test Range (AFWTR)
Object type
Payload
Rocket body
Debris
Shape & HBR
Unknown shape, 0.1 m
Radar Cross Section
Small (<0.1 m²)

Expand to show TLE details & history
Last TLE update: 10 hours ago

TLE from 10 hours ago
0 OPS 4682 DEB
1 38455U 65027FL  26119.39996389 -.00000160  00000-0 -57277-3 0  9990
2 38455  90.2401   3.2699 0025856 166.6415 193.5396 12.97887800578182
Epoch: 2026-04-29T09:35Z
TLE epoch observation values (Epoch: 2026-04-29T09:35:56.880Z)
Latitude
-0°
Longitude
1.92143°
Altitude
1,292.487 km
Speed
7.201 km/s
True Right ascension
00h 13m 04s
True Declination
0° 00' 00"
Sunlit
Object was in daylight at epoch
Visualization orbit readout
Latitude
Unknown
Longitude
Unknown
Altitude
Unknown
Speed
Unknown
Apparent Right ascension
Unknown
Apparent Declination
Unknown
Sunlit
N/A
Visualization observer readout
Local Sidereal Time
02:50:15
Azimuth
Unknown
Elevation
Unknown
Doppler factor
Unknown
Orbital elements
Apogee altitude
1,287.272 km
Perigee altitude
1,247.735 km
Semi-major axis
7,645.641 km
Eccentricity
0.00259
Inclination
90.2401°
RAAN
3.2699°
Arg. of periapsis
166.6415°
True anomaly
193.47045°
Mean anomaly
193.5396°
Eccentric anomaly
193.505°
Mean motion
3.24655 °/min
Orbital period
110.89 mins
BSTAR
-0.00057277
Loading maneuver chart data...
Computing Atmospheric mass density...
Loading historical data...
Loading historical data...
Loading historical data...
Loading historical data...
Loading historical data...
Loading historical data...
Loading historical data...

Documentation

Showing up to 5 results
|